Tracking 19709 objects as of 19-Jun-2019
HD Live streaming from Space Station
objects crossing your sky now

DELTA 1 DEB

Track DELTA 1 DEB now!
10-day predictions


NORAD ID: 7182
Int'l Code: 1973-086ET
Perigee: 1,105.3 km
Apogee: 1,631.0 km
Inclination: 102.5 °
Period: 112.9 minutes
Semi major axis: 7739 km
RCS: 0.0751 m2 (small)
Launch date: November 6, 1973
Source: United States (US)
Launch site: AIR FORCE WESTERN TEST RANGE (AFWTR)

Note: This is SATELLITE DEBRIS
aabbcc
Your satellite tracking list
Your tracking list is empty




NASA's NSSDC Master Catalog

Two Line Element Set (TLE):
1  7182U 73086ET  19170.18162868  .00000410  00000-0  17131-2 0  9990
2  7182 102.4998  43.9300 0339576 166.3524 318.4342 12.75154906362413
Source of the keplerian elements: AFSPC